Starlink 34145

operational
NORAD ID: 64110 Int'l Des: 2025-110 Owner: SPXS Country: US Constellation: starlink
LEOCIRCULAR

关于 Starlink 34145

正在加载描述...

实时位置

正在加载3D地球...

即将过境

高度历史

Altitude vs Time

uPlot chart will show altitude changes over time

两行轨道根数

1 64110U 25110Q 25308.12627800 .00092418 00000-0 22445-2 0 9998
2 64110 53.1608 250.3150 0003276 213.2514 146.8286 15.40261137 26653
Epoch: Nov 4, 2025 • Age: 10 hours

当前状态

高度 462.1 km
速度 7.64 km/s
星下点 -53.10°S, 95.85°W
发射日期 May 23, 2025
运行时间 0.4 years
类型 internet

技术详情

分类 Payload
质量 575.00 kg
干质量 530.00 kg
总质量 575.00 kg
长度 0.30 m
直径 4.10 m
跨度 29.00 m
形状 Box + pan
制造商 SPXS
平台类型 Starlink V2MO
阶段状态 In Orbit
所有者/国家 SPXS/US

大型星座

Loading constellations...